Location: Brachbach
(49.1847°N, 9.7240°E)
Time: 05:09:03
(UTC+00:00)

STARS - Pass Details

Date: 23 March 2026
Orbit: 575 x 588 km, 98.2° (Epoch: 15 April)

Event Time Altitude Azimuth Distance (km) Brightness Sun altitude
Rises 02:59:13 0° 359° (N) 2,800 ? -22.4°
Reaches altitude 10° 03:02:09 10° 336° (NNW) 1,896 ? -22.0°
Enters shadow 03:03:12 13° 322° (NW) 1,692 ? -21.9°
